Regional Weather Roundup
Issued by NWS State College, PA

Home | Current Version | Previous Version | Text Only | Print | Product List | Glossary Off
Versions: 1 2 3 4 5 6 7 8 9 10 11 12 13 14 15 16 17 18 19 20 21 22 23 24 25 26 27 28 29 30 31 32 33 34 35 36 37 38 39 40 41 42 43 44 45 46 47 48 49 50

000
ASUS41 KCTP 271510
RWRCTP

REGIONAL WEATHER ROUNDUP
NATIONAL WEATHER SERVICE STATE COLLEGE PA
1100 AM EDT TUE SEP 27 2016

Note: "fair" indicates few or no clouds below 12,000 feet with no
significant weather and/or obstructions to visibility.

* = STATION THAT DOES NOT REPORT PRECIPITATION /E.G. RAIN...SNOW...ETC/
    THUNDER OR FOG.

PAZ002>004-007>009-013>016-020>023-029>032-271600-
WESTERN PENNSYLVANIA

CITY           SKY/WX    TMP DP  RH WIND       PRES   REMARKS
ERIE           SUNNY     64  46  52 S12       29.86F
MEADVILLE      SUNNY     59  44  57 S13G18    29.91F
FRANKLIN*        N/A     59  46  63 SW10G18   29.94F
NEW CASTLE     FAIR      63  49  60 S8        29.95S
BEAVER COUNTY  SUNNY     63  50  63 S7        29.96R
BUTLER*        SUNNY     61  48  63 SW9       29.99S
PITTSBURGH INT MOSUNNY   63  48  58 SW8       29.97R
PITTSBURGH     SUNNY     63  49  60 S10       29.96F
INDIANA*       SUNNY     63  52  67 W14       29.99F
LATROBE        SUNNY     63  50  63 SW9G18    30.00S
WASHINGTON CO* SUNNY     63  48  59 SW10      29.98F
$$

PAZ004>006-010>012-017>019-024>028-033>037-041-042-045-046-049>053-271600-
CENTRAL PENNSYLVANIA

CITY           SKY/WX    TMP DP  RH WIND       PRES   REMARKS
BRADFORD       SUNNY     57  49  74 VRB5      29.94S
DUBOIS         SUNNY     59  48  67 SW9       29.95S
CLEARFIELD     SUNNY     62  52  69 SW9G17    29.96F
JOHNSTOWN      SUNNY     60  46  59 W12G23    29.98F
ALTOONA        SUNNY     62  50  64 SW10G17   29.99F
STATE COLLEGE  SUNNY     63  52  67 SW6       29.97F
WILLIAMSPORT   MOSUNNY   63  56  78 CALM      29.95F
SELINSGROVE    SUNNY     66  54  65 VRB3      29.98F
FT INDIANTOWN  MOSUNNY   66  53  62 VRB3      29.98S
CAPITAL CITY   SUNNY     68  50  52 W7        29.99S
HARRISBURG     SUNNY     67  54  63 NW8       29.98S
YORK           SUNNY     68  51  54 N6        29.99S
$$

PAZ038>040-043-044-047-048-054-055-060>062-067>071-271600-
EASTERN PENNSYLVANIA

CITY           SKY/WX    TMP DP  RH WIND       PRES   REMARKS
SCRANTON       SUNNY     64  54  69 VRB6      29.96F
MOUNT POCONO   MOSUNNY   60  48  64 W7        29.98S
ALLENTOWN      PTSUNNY   64  55  72 W5        29.97S
QUAKERTOWN*    MOSUNNY   64  55  72 N5        29.99S
READING        MOSUNNY   67  56  67 MISG      29.97F
LANCASTER      SUNNY     68  54  60 VRB7      29.99S
COATESVILLE    MOSUNNY   66  55  68 NW6       30.00F
POTTSTOWN      CLOUDY    65  58  78 NW3       29.99F
BLUE BELL      CLOUDY    66  57  72 NW3       29.96F
DOYLESTOWN     MOSUNNY   68  60  75 MISG      29.97S
WILLOW GROVE   NOT AVBL
NORTH PHILA    CLOUDY    70  60  70 NW7       29.98S
PHILADELPHIA   CLOUDY    68  59  73 NW7       29.97F
$$




USA.gov is the U.S. government's official web portal to all federal, state and local government web resources and services.